Content
SEND FEEDBACK

Daily
Averages
Monthly
Summary
Brazil

FLORIANOPOLIS, SANTA CATARINA


Home > South America > Brazil > Santa Catarina
Elevation: 16 feet     Latitude: 27 40S     Longitude: 048 33W

WEATHER
 
SELECT A DAY
Number of Records: 182,205;   Date Range: 6/30/96 - 7/20/14
 
SHARE

PRINT THIS DATA

[ ← Previous Day ]
WEATHER ALMANAC - JANUARY 2, 2013
[ Next Day → ]
[ °C ]   °F
Weather ElementAverageHighLow
Temperature71.2 °F77 °F (1:00 pm)68 °F (3:00 am)
Dewpoint60.6 °F64.4 °F (1:00 am)59 °F (7:00 am)
Humidity68.3 %88 % (3:00 am)53 % (4:00 pm)
Barometer30.06 in30.13 in (10:00 pm)30.01 in (1:00 am)
Wind Speed11.1 mph16.1 mph (3:00 pm)
Weather ElementAverage
Visibility7.1 mi
Wind DirectionS (183.3 °)

Weather ElementTotal
Precipitation---
Cooling Degree Days7.5 (Base 65)
Growing Degree Days22.5 (Base 50)
Averaged from 27 records on January 2, 2013
WEATHER CONDITIONS BREAKOUT
WIND DIRECTION BREAKOUT
WEATHER BY HOUR - JANUARY 2, 2013
[ °C ]   °F
Local TimeTemperatureDewpointHumidityBarometerVisibilityWind DirectionWind SpeedGust SpeedPrecipitationEventsConditions
1:00 AM69.8 °F64.4 °F83 %30.01 in6.2 miSouth (190°)13.8 mphMostly Cloudy
2:00 AM69.8 °F64.4 °F83 %30.01 in6.2 miSouth (180°)12.7 mphMostly Cloudy
3:00 AM68.0 °F64.4 °F88 %30.01 in6.2 miSouth (190°)12.7 mphMostly Cloudy
4:00 AM69.0 °F63.0 °F74 %30.01 in12.0 miSouth (190°)11.5 mphMostly Cloudy
4:00 AM68.0 °F62.6 °F83 %30.01 in6.2 miSouth (190°)11.5 mphMostly Cloudy
5:00 AM68.0 °F60.8 °F78 %30.01 in6.2 miSouth (190°)13.8 mphMostly Cloudy
6:00 AM68.0 °F60.8 °F78 %30.01 in6.2 miSouth (190°)13.8 mphMostly Cloudy
7:00 AM68.0 °F59.0 °F73 %30.04 in6.2 miSouth (190°)15.0 mphMostly Cloudy
8:00 AM69.8 °F59.0 °F68 %30.04 in6.2 miSouth (190°)12.7 mphMostly Cloudy
9:00 AM71.6 °F59.0 °F64 %30.06 in6.2 miSouth (190°)9.2 mphMostly Cloudy
10:00 AM72.0 °F59.0 °F54 %30.09 in12.0 miSouth (190°)12.7 mphMostly Cloudy
10:00 AM71.6 °F59.0 °F64 %30.09 in6.2 miSouth (190°)12.7 mphMostly Cloudy
11:00 AM73.4 °F59.0 °F61 %30.09 in6.2 miSouth (190°)12.7 mphMostly Cloudy
12:00 PM75.2 °F59.0 °F57 %30.09 in6.2 miSouth (180°)11.5 mphMostly Cloudy
1:00 PM77.0 °F60.8 °F57 %30.09 in6.2 miSouth (180°)10.4 mphMostly Cloudy
2:00 PM77.0 °F60.8 °F57 %30.06 in6.2 miSouth (190°)12.7 mphMostly Cloudy
3:00 PM75.2 °F62.6 °F65 %30.06 in6.2 miSouth (170°)16.1 mphMostly Cloudy
4:00 PM73.0 °F59.0 °F53 %30.08 in12.0 miSouth (170°)11.5 mphMostly Cloudy
4:00 PM73.4 °F59.0 °F61 %30.06 in6.2 miSouth (170°)11.5 mphMostly Cloudy
5:00 PM73.4 °F59.0 °F61 %30.06 in6.2 miSSE (160°)10.4 mphMostly Cloudy
6:00 PM71.6 °F59.0 °F64 %30.06 in6.2 miSSE (150°)8.1 mphMostly Cloudy
7:00 PM71.6 °F60.8 °F69 %30.06 in6.2 miSouth (170°)9.2 mphMostly Cloudy
8:00 PM69.8 °F60.8 °F73 %30.09 in6.2 miSouth (180°)6.9 mphMostly Cloudy
9:00 PM69.8 °F60.8 °F73 %30.12 in6.2 miSouth (190°)6.9 mphMostly Cloudy
10:00 PM70.0 °F60.0 °F62 %30.13 in12.0 miSouth (190°)6.9 mphMostly Cloudy
10:00 PM69.8 °F60.8 °F73 %30.12 in6.2 miSouth (190°)6.9 mphMostly Cloudy
11:00 PM69.8 °F59.0 °F68 %30.12 in6.2 miSSW (200°)5.8 mphMostly Cloudy
Hourly data recorded from SBFL, located miles away from Florianopolis, Santa Catarina







STORIES FROM OUR PARTNERS